User: anonymous   Login
Location: Gadern
(49.5873°N, 8.8138°E)
Time: 00:55:05
(UTC+00:00)
Language:

Timation 1 Rocket - Orbit

View from above orbital plane
View from above orbital plane
View from above satellite
View from above satellite

Ground track
Ground track

The orbit data is extracted from the following two-line orbital elements,

1 02825U 67053B   25189.42482660  .00000033  00000-0  61363-4 0  9994
2 02825  69.9721  91.5088 0009616 262.9020  97.0993 13.97640033 44064
Epoch (UTC): 08 July 2025 10:11:45
Eccentricity: 0.0009616
inclination: 69.9721°
perigee height: 895 km
apogee height: 909 km
right ascension of ascending node: 91.5088°
argument of perigee: 262.9020°
revolutions per day: 13.97640033
mean anomaly at epoch: 97.0993°
orbit number at epoch: 4406

The dashed part of the orbit path shows where the satellite is in the earth's shadow,  

DLR